Weather History for KHNB - February, 2014

Change the Weather History Date:

Friday, February 21, 2014

  Actual Average Record
Temperature  
Mean Temperature 42 °F -  
Max Temperature 48 °F 44 °F 66 °F (1997)
Min Temperature 35 °F 29 °F 17 °F (2008)
Degree Days  
Heating Degree Days 24    
Moisture  
Dew Point 25 °F    
Average Humidity 54    
Maximum Humidity 75    
Minimum Humidity 34    
Precipitation  
Precipitation 0.17 in - - ()
Sea Level Pressure  
Sea Level Pressure 29.91 in    
Wind  
Wind Speed 14 mph (SW)    
Max Wind Speed 28 mph    
Max Gust Speed 33 mph    
Visibility 10 miles    
Events      
Averages and records for this station are not official NWS values.
T = Trace of Precipitation, MM = Missing Value Source: NWS Daily Summary

Daily Weather History Graph

Daily Weather History Graph

Search for Another Location

Airport or City:

Trip Planner

Search our weather history database for the weather conditions in past years. The results will help you decide how hot, cold, wet, or windy it might be!

Date:

Astronomy

Feb. 21, 2014 Rise Set
Actual Time 7:30 AM EST 6:32 PM EST
Civil Twilight 7:03 AM EST 6:59 PM EST
Nautical Twilight 6:33 AM EST 7:30 PM EST
Astronomical Twilight 6:02 AM EST 8:00 PM EST
Moon 12:20 AM EST (2/21) 11:00 AM EST (2/21)
Length of Visible Light 11h 55m
Length of Day
11h 02m
Waning Gibbous, 61% of the Moon is Illuminated
Feb 21
Waning Gibbous
Feb 22
Last Quarter
Mar 1
New
Mar 8
First Quarter
Mar 16
Full

Hourly Weather History & Observations

Time (EST) Temp. Windchill Dew Point Humidity Pressure Visibility Wind Dir Wind Speed Gust Speed Precip Events Conditions
12:15 AM 41.0 °F 32.8 °F 30.2 °F 65% 29.77 in 10.0 mi West 16.1 mph 21.9 mph N/A   Mostly Cloudy
12:35 AM 39.2 °F 31.2 °F 30.2 °F 70% 29.78 in 10.0 mi West 13.8 mph - N/A   Partly Cloudy
12:55 AM 39.2 °F 32.0 °F 28.4 °F 65% 29.77 in 10.0 mi West 11.5 mph - N/A   Partly Cloudy
1:15 AM 37.4 °F 29.3 °F 28.4 °F 70% 29.78 in 10.0 mi WSW 12.7 mph - N/A   Clear
1:35 AM 39.2 °F 32.0 °F 28.4 °F 65% 29.79 in 10.0 mi WSW 11.5 mph - N/A   Clear
1:55 AM 37.4 °F 30.8 °F 28.4 °F 70% 29.80 in 10.0 mi SW 9.2 mph - N/A   Clear
2:15 AM 37.4 °F 30.3 °F 28.4 °F 70% 29.81 in 10.0 mi SSW 10.4 mph - N/A   Clear
2:35 AM 37.4 °F 30.3 °F 28.4 °F 70% 29.81 in 10.0 mi SSW 10.4 mph - N/A   Clear
2:55 AM 37.4 °F 30.3 °F 28.4 °F 70% 29.80 in 10.0 mi SSW 10.4 mph - N/A   Clear
3:15 AM 35.6 °F 28.0 °F 28.4 °F 75% 29.79 in 10.0 mi SSW 10.4 mph - N/A   Clear
3:35 AM 35.6 °F 29.2 °F 28.4 °F 75% 29.80 in 10.0 mi SSW 8.1 mph - N/A   Clear
3:55 AM 35.6 °F 28.0 °F 28.4 °F 75% 29.80 in 10.0 mi SSW 10.4 mph - N/A   Clear
4:15 AM 35.6 °F 27.5 °F 28.4 °F 75% 29.80 in 10.0 mi SSW 11.5 mph - N/A   Clear
4:35 AM 35.6 °F 27.1 °F 28.4 °F 75% 29.81 in 10.0 mi SSW 12.7 mph - N/A   Clear
4:55 AM 37.4 °F 28.2 °F 28.4 °F 70% 29.80 in 10.0 mi SSW 16.1 mph - N/A   Clear
5:15 AM 37.4 °F 28.5 °F 28.4 °F 70% 29.81 in 10.0 mi SSW 15.0 mph 19.6 mph N/A   Clear
5:35 AM 37.4 °F 28.2 °F 28.4 °F 70% 29.81 in 10.0 mi SW 16.1 mph - N/A   Clear
5:55 AM 37.4 °F 28.2 °F 28.4 °F 70% 29.81 in 10.0 mi SW 16.1 mph - N/A   Clear
6:15 AM 37.4 °F 28.5 °F 28.4 °F 70% 29.82 in 10.0 mi SW 15.0 mph - N/A   Clear
6:35 AM 37.4 °F 28.9 °F 28.4 °F 70% 29.83 in 10.0 mi SW 13.8 mph - N/A   Clear
6:55 AM 37.4 °F 27.8 °F 28.4 °F 70% 29.84 in 10.0 mi WSW 17.3 mph 21.9 mph N/A   Clear
7:15 AM 37.4 °F 28.2 °F 26.6 °F 65% 29.85 in 10.0 mi WSW 16.1 mph 20.7 mph N/A   Clear
7:35 AM 37.4 °F 26.9 °F 26.6 °F 65% 29.85 in 10.0 mi WSW 20.7 mph 25.3 mph N/A   Clear
7:55 AM 37.4 °F 29.3 °F 26.6 °F 65% 29.86 in 10.0 mi WSW 12.7 mph - N/A   Clear
8:15 AM 37.4 °F 28.2 °F 26.6 °F 65% 29.87 in 10.0 mi WSW 16.1 mph 21.9 mph N/A   Clear
8:35 AM 37.4 °F 28.2 °F 26.6 °F 65% 29.89 in 10.0 mi WSW 16.1 mph 24.2 mph N/A   Clear
8:55 AM 39.2 °F 32.0 °F 26.6 °F 61% 29.90 in 10.0 mi WSW 11.5 mph - N/A   Clear
9:15 AM 39.2 °F 30.5 °F 26.6 °F 61% 29.90 in 10.0 mi West 16.1 mph 21.9 mph N/A   Clear
9:35 AM 41.0 °F 30.9 °F 26.6 °F 57% 29.90 in 10.0 mi West 24.2 mph 31.1 mph N/A   Clear
9:55 AM 41.0 °F 31.1 °F 26.6 °F 57% 29.91 in 10.0 mi West 23.0 mph 27.6 mph N/A   Clear
10:15 AM 42.8 °F 34.0 °F 24.8 °F 49% 29.92 in 10.0 mi West 20.7 mph 29.9 mph N/A   Clear
10:35 AM 42.8 °F 33.8 °F 24.8 °F 49% 29.92 in 10.0 mi WSW 21.9 mph - N/A   Clear
10:55 AM 42.8 °F 33.5 °F 26.6 °F 53% 29.93 in 10.0 mi West 23.0 mph 29.9 mph N/A   Clear
11:15 AM 42.8 °F 34.5 °F 24.8 °F 49% 29.95 in 10.0 mi West 18.4 mph - N/A   Clear
11:35 AM 42.8 °F 34.8 °F 24.8 °F 49% 29.95 in 10.0 mi West 17.3 mph 25.3 mph N/A   Clear
11:55 AM 44.6 °F 36.6 °F 24.8 °F 46% 29.96 in 10.0 mi West 19.6 mph 33.4 mph N/A   Clear
12:15 PM 44.6 °F 35.1 °F 23.0 °F 43% 29.97 in 10.0 mi West 27.6 mph 32.2 mph N/A   Clear
12:35 PM 44.6 °F 36.1 °F 23.0 °F 43% 29.98 in 10.0 mi West 21.9 mph 26.5 mph N/A   Clear
12:55 PM 44.6 °F 35.9 °F 23.0 °F 43% 29.98 in 10.0 mi West 23.0 mph 29.9 mph N/A   Clear
1:15 PM 44.6 °F 37.4 °F 21.2 °F 39% 29.98 in 10.0 mi West 16.1 mph 29.9 mph N/A   Clear
1:35 PM 46.4 °F 38.5 °F 21.2 °F 37% 29.97 in 10.0 mi West 21.9 mph 26.5 mph N/A   Clear
1:55 PM 46.4 °F 38.5 °F 21.2 °F 37% 29.97 in 10.0 mi West 21.9 mph 27.6 mph N/A   Clear
2:15 PM 46.4 °F 38.3 °F 21.2 °F 37% 29.97 in 10.0 mi West 23.0 mph 26.5 mph N/A   Clear
2:35 PM 46.4 °F 39.5 °F 21.2 °F 37% 29.98 in 10.0 mi West 17.3 mph - N/A   Clear
2:55 PM 46.4 °F 39.0 °F 21.2 °F 37% 29.98 in 10.0 mi WSW 19.6 mph 25.3 mph N/A   Clear
3:15 PM 48.2 °F - 21.2 °F 34% 29.98 in 10.0 mi West 17.3 mph 24.2 mph N/A   Clear
3:35 PM 48.2 °F - 21.2 °F 34% 29.98 in 10.0 mi West 16.1 mph - N/A   Clear
3:55 PM 48.2 °F - 23.0 °F 37% 29.98 in 10.0 mi West 15.0 mph 23.0 mph N/A   Clear
4:15 PM 48.2 °F - 21.2 °F 34% 29.98 in 10.0 mi WSW 11.5 mph 19.6 mph N/A   Clear
4:35 PM 48.2 °F - 21.2 °F 34% 29.98 in 10.0 mi West 10.4 mph - N/A   Clear
4:55 PM 48.2 °F - 21.2 °F 34% 29.98 in 10.0 mi WSW 13.8 mph 19.6 mph N/A   Clear
5:15 PM 48.2 °F - 23.0 °F 37% 29.98 in 10.0 mi West 11.5 mph - N/A   Clear
5:35 PM 48.2 °F - 23.0 °F 37% 29.98 in 10.0 mi SW 6.9 mph - N/A   Clear
5:55 PM 46.4 °F 41.5 °F 21.2 °F 37% 29.99 in 10.0 mi SW 10.4 mph - N/A   Clear
6:15 PM 46.4 °F 42.9 °F 21.2 °F 37% 29.98 in 10.0 mi South 6.9 mph - N/A   Clear
6:35 PM 42.8 °F 38.0 °F 21.2 °F 42% 29.98 in 10.0 mi South 8.1 mph - N/A   Clear
6:55 PM 42.8 °F 39.3 °F 21.2 °F 42% 29.98 in 10.0 mi South 5.8 mph - N/A   Clear
7:15 PM 42.8 °F 39.3 °F 19.4 °F 39% 29.99 in 10.0 mi South 5.8 mph - N/A   Clear
7:35 PM 41.0 °F 36.4 °F 19.4 °F 42% 29.99 in 10.0 mi South 6.9 mph - N/A   Clear
7:55 PM 39.2 °F 33.6 °F 19.4 °F 45% 29.99 in 10.0 mi South 8.1 mph - N/A   Clear
8:15 PM 39.2 °F 33.0 °F 21.2 °F 49% 29.98 in 10.0 mi South 9.2 mph - N/A   Clear
8:35 PM 39.2 °F 33.0 °F 21.2 °F 49% 29.98 in 10.0 mi South 9.2 mph - N/A   Clear
8:55 PM 39.2 °F 32.0 °F 21.2 °F 49% 29.99 in 10.0 mi South 11.5 mph - N/A   Clear
9:15 PM 41.0 °F 34.7 °F 21.2 °F 45% 29.99 in 10.0 mi South 10.4 mph - N/A   Clear
9:35 PM 39.2 °F 32.5 °F 21.2 °F 49% 29.99 in 10.0 mi South 10.4 mph - N/A   Clear
9:55 PM 39.2 °F 32.5 °F 21.2 °F 49% 29.99 in 10.0 mi South 10.4 mph - N/A   Clear
10:15 PM 39.2 °F 32.5 °F 23.0 °F 52% 30.00 in 10.0 mi South 10.4 mph - N/A   Clear
10:35 PM 39.2 °F 32.0 °F 23.0 °F 52% 30.00 in 10.0 mi South 11.5 mph - N/A   Clear
10:55 PM 39.2 °F 32.0 °F 23.0 °F 52% 30.00 in 10.0 mi South 11.5 mph - N/A   Clear
11:15 PM 39.2 °F 32.0 °F 23.0 °F 52% 30.00 in 10.0 mi South 11.5 mph - N/A   Clear
11:35 PM 39.2 °F 32.5 °F 23.0 °F 52% 29.99 in 10.0 mi South 10.4 mph - N/A   Clear
11:55 PM 39.2 °F 31.6 °F 23.0 °F 52% 29.99 in 10.0 mi South 12.7 mph - N/A   Clear